TimeCST,TemperatureF,Dew PointF,Humidity,Sea Level PressureIn,VisibilityMPH,Wind Direction,Wind SpeedMPH,Gust SpeedMPH,PrecipitationIn,Events,Conditions,WindDirDegrees,DateUTC
12:15 AM,39.6,34.7,83,30.04,10.0,Calm,Calm,-,N/A,,Scattered Clouds,0,2013-02-15 06:15:00
12:35 AM,39.4,35.1,84,30.04,10.0,Calm,Calm,-,N/A,,Mostly Cloudy,0,2013-02-15 06:35:00
12:55 AM,39.2,34.9,84,30.04,10.0,Calm,Calm,-,N/A,,Mostly Cloudy,0,2013-02-15 06:55:00
1:15 AM,37.4,34.5,89,30.05,10.0,Calm,Calm,-,N/A,,Mostly Cloudy,0,2013-02-15 07:15:00
1:35 AM,36.5,34.2,91,30.05,10.0,WNW,3.5,-,N/A,,Mostly Cloudy,290,2013-02-15 07:35:00
1:55 AM,35.1,33.1,92,30.06,10.0,NW,5.8,-,N/A,,Scattered Clouds,310,2013-02-15 07:55:00
2:15 AM,35.1,33.3,93,30.07,10.0,NNW,5.8,-,N/A,,Scattered Clouds,330,2013-02-15 08:15:00
2:55 AM,36.5,34.0,91,30.07,10.0,Calm,Calm,-,N/A,,Scattered Clouds,0,2013-02-15 08:55:00
3:15 AM,36.0,34.5,94,30.07,10.0,Calm,Calm,-,N/A,,Mostly Cloudy,0,2013-02-15 09:15:00
3:35 AM,36.5,34.7,93,30.07,10.0,Calm,Calm,-,N/A,,Overcast,0,2013-02-15 09:35:00
3:55 AM,36.9,35.6,95,30.07,10.0,Calm,Calm,-,N/A,,Mostly Cloudy,0,2013-02-15 09:55:00
4:15 AM,37.4,35.8,94,30.09,10.0,WSW,3.5,-,N/A,,Mostly Cloudy,250,2013-02-15 10:15:00
4:35 AM,37.4,36.0,95,30.09,7.0,West,4.6,-,N/A,,Mostly Cloudy,260,2013-02-15 10:35:00
4:55 AM,39.0,35.8,88,30.10,10.0,West,6.9,-,N/A,,Overcast,280,2013-02-15 10:55:00
5:15 AM,39.9,35.4,84,30.10,10.0,SSW,6.9,-,N/A,,Overcast,210,2013-02-15 11:15:00
5:35 AM,40.3,34.9,81,30.09,10.0,SSW,8.1,-,N/A,,Overcast,200,2013-02-15 11:35:00
6:15 AM,39.7,35.1,83,30.11,10.0,WSW,5.8,-,N/A,,Overcast,240,2013-02-15 12:15:00
6:35 AM,39.9,34.7,82,30.12,10.0,West,9.2,-,N/A,,Overcast,270,2013-02-15 12:35:00
6:55 AM,39.6,33.8,80,30.13,10.0,NW,10.4,-,N/A,,Overcast,310,2013-02-15 12:55:00
7:15 AM,39.2,32.2,76,30.14,10.0,NW,10.4,-,N/A,,Overcast,310,2013-02-15 13:15:00
7:35 AM,38.8,31.8,76,30.15,10.0,NW,9.2,-,N/A,,Scattered Clouds,310,2013-02-15 13:35:00
7:55 AM,39.0,31.5,74,30.15,10.0,NW,11.5,-,N/A,,Clear,310,2013-02-15 13:55:00
8:15 AM,37.9,31.5,77,30.16,10.0,NW,13.8,-,N/A,,Clear,320,2013-02-15 14:15:00
8:35 AM,38.7,32.0,77,30.17,10.0,NW,13.8,-,N/A,,Clear,320,2013-02-15 14:35:00
8:55 AM,39.2,32.2,76,30.18,10.0,NW,13.8,18.4,N/A,,Scattered Clouds,320,2013-02-15 14:55:00
9:15 AM,39.2,32.0,75,30.19,10.0,WNW,16.1,-,N/A,,Mostly Cloudy,300,2013-02-15 15:15:00
9:35 AM,37.6,31.5,79,30.19,10.0,WNW,13.8,19.6,N/A,,Overcast,300,2013-02-15 15:35:00
9:55 AM,37.6,30.0,74,30.20,10.0,NW,16.1,24.2,N/A,,Overcast,310,2013-02-15 15:55:00
10:15 AM,37.8,29.8,73,30.20,10.0,NW,11.5,-,N/A,,Overcast,310,2013-02-15 16:15:00
10:35 AM,37.8,29.5,72,30.21,10.0,WNW,13.8,-,N/A,,Overcast,300,2013-02-15 16:35:00
10:55 AM,39.0,28.8,67,30.21,10.0,NW,13.8,21.9,N/A,,Mostly Cloudy,310,2013-02-15 16:55:00
11:15 AM,39.0,27.9,64,30.21,10.0,NW,13.8,21.9,N/A,,Scattered Clouds,310,2013-02-15 17:15:00
11:55 AM,39.0,25.9,59,30.20,10.0,NW,11.5,20.7,N/A,,Mostly Cloudy,310,2013-02-15 17:55:00
12:15 PM,39.9,27.1,60,30.20,10.0,NW,13.8,23.0,N/A,,Overcast,320,2013-02-15 18:15:00
12:35 PM,39.0,25.5,58,30.20,10.0,NW,6.9,-,N/A,,Mostly Cloudy,310,2013-02-15 18:35:00
1:15 PM,41.4,24.4,51,30.19,10.0,West,15.0,21.9,N/A,,Scattered Clouds,280,2013-02-15 19:15:00
1:35 PM,40.5,23.7,51,30.19,10.0,NW,13.8,-,N/A,,Scattered Clouds,320,2013-02-15 19:35:00
1:55 PM,41.0,23.4,50,30.18,10.0,NW,10.4,20.7,N/A,,Clear,310,2013-02-15 19:55:00
2:15 PM,41.2,22.3,47,30.19,10.0,NNW,15.0,20.7,N/A,,Clear,330,2013-02-15 20:15:00
2:35 PM,40.8,20.8,45,30.19,10.0,WNW,15.0,24.2,N/A,,Clear,300,2013-02-15 20:35:00
2:55 PM,40.5,21.4,47,30.19,10.0,NW,6.9,19.6,N/A,,Clear,310,2013-02-15 20:55:00
3:15 PM,41.0,21.4,46,30.20,10.0,NW,12.7,19.6,N/A,,Clear,320,2013-02-15 21:15:00
3:35 PM,40.6,22.8,49,30.20,10.0,NNW,13.8,17.3,N/A,,Scattered Clouds,340,2013-02-15 21:35:00
3:55 PM,39.7,21.7,49,30.20,10.0,NNW,16.1,-,N/A,,Clear,330,2013-02-15 21:55:00
4:15 PM,39.4,21.4,49,30.21,10.0,NW,15.0,-,N/A,,Clear,320,2013-02-15 22:15:00
4:35 PM,38.7,21.0,49,30.21,10.0,NNW,11.5,-,N/A,,Clear,330,2013-02-15 22:35:00
4:55 PM,38.1,21.6,51,30.22,10.0,WNW,12.7,-,N/A,,Clear,300,2013-02-15 22:55:00
5:15 PM,37.0,21.7,54,30.22,10.0,NW,10.4,-,N/A,,Clear,320,2013-02-15 23:15:00
5:35 PM,35.2,22.8,61,30.22,10.0,NW,6.9,-,N/A,,Clear,320,2013-02-15 23:35:00
5:55 PM,34.2,23.5,65,30.21,10.0,NNW,6.9,-,N/A,,Clear,330,2013-02-15 23:55:00
6:15 PM,32.9,23.4,68,30.22,10.0,NW,5.8,-,N/A,,Clear,320,2013-02-16 00:15:00
6:35 PM,32.0,23.5,71,30.22,10.0,NNW,4.6,-,N/A,,Clear,330,2013-02-16 00:35:00
6:55 PM,32.7,22.1,65,30.22,10.0,NNW,4.6,-,N/A,,Clear,340,2013-02-16 00:55:00
7:15 PM,32.4,22.8,68,30.22,10.0,NW,3.5,-,N/A,,Clear,320,2013-02-16 01:15:00
7:35 PM,32.2,23.7,71,30.22,10.0,WNW,3.5,-,N/A,,Clear,300,2013-02-16 01:35:00
7:55 PM,32.0,23.5,71,30.22,10.0,WNW,3.5,-,N/A,,Clear,300,2013-02-16 01:55:00
8:15 PM,31.8,23.7,72,30.23,10.0,Calm,Calm,-,N/A,,Clear,0,2013-02-16 02:15:00
8:35 PM,31.5,23.5,73,30.23,10.0,Calm,Calm,-,N/A,,Clear,0,2013-02-16 02:35:00
8:55 PM,31.3,23.7,74,30.23,10.0,WNW,3.5,-,N/A,,Clear,290,2013-02-16 02:55:00
9:15 PM,31.1,22.1,69,30.23,10.0,WNW,4.6,-,N/A,,Clear,290,2013-02-16 03:15:00
9:35 PM,30.6,23.0,74,30.23,10.0,WNW,3.5,-,N/A,,Clear,300,2013-02-16 03:35:00
9:55 PM,30.7,22.8,72,30.23,10.0,Calm,Calm,-,N/A,,Clear,0,2013-02-16 03:55:00
10:15 PM,30.2,23.4,76,30.22,10.0,Calm,Calm,-,N/A,,Clear,0,2013-02-16 04:15:00
10:35 PM,30.2,22.8,74,30.22,10.0,Calm,Calm,-,N/A,,Clear,0,2013-02-16 04:35:00
10:55 PM,29.3,25.2,85,30.22,10.0,Calm,Calm,-,N/A,,Clear,0,2013-02-16 04:55:00
11:15 PM,30.0,24.8,81,30.21,10.0,Calm,Calm,-,N/A,,Clear,0,2013-02-16 05:15:00
11:35 PM,29.3,25.3,85,30.20,10.0,Calm,Calm,-,N/A,,Clear,0,2013-02-16 05:35:00
11:55 PM,29.3,26.2,88,30.20,10.0,WSW,3.5,-,N/A,,Clear,240,2013-02-16 05:55:00